Theta_e
314 312 312 311 311 310 310 310 309 309 309 308 307 307 306 306 305 305 305 304 304 304 303 303 303 303 303 303 302 302 302 302 302 301 301 301 301 301 300 300 300 300 300 300 300 300 300 300 300 300 300 300 300 300 300 300 300 300 300 299 299 299 299 299 299 299 299 299 299 299 299 298 298 298 298 298 298 297 297 297 297 298 298 298 298 298
312 311 311 311 311 310 310 309 309 308 308 307 307 306 305 305 305 304 304 304 304 303 303 303 303 302 302 302 302 302 301 301 301 301 300 300 300 299 299 299 299 298 298 298 298 298 297 297 297 297 297 297 297 297 297 297 297 297 297 297 297 296 296 296 296 296 296 296 296 296 296 296 296 295 295 295 295 295 295 295 295 295 295 295 295 296
311 311 311 310 310 310 310 309 308 307 307 307 306 305 305 304 304 304 303 303 303 303 303 303 302 302 302 302 301 301 301 300 300 299 299 298 298 297 297 297 296 296 296 295 295 295 294 294 294 294 294 293 293 293 293 293 293 293 293 293 293 293 293 293 293 293 293 293 293 293 293 293 293 293 292 292 292 292 293 293 293 293 293 293 293 293
311 311 311 310 310 309 309 308 307 307 306 306 305 304 304 303 303 303 303 303 303 303 302 302 302 302 301 301 301 300 300 299 298 297 297 296 296 295 295 294 294 294 293 293 292 292 292 291 291 291 291 291 291 290 290 290 290 290 290 290 290 290 290 290 290 290 290 290 290 290 290 290 290 290 290 290 290 290 290 290 291 291 291 291 291 291
310 310 310 310 309 308 307 307 306 306 305 305 304 304 303 303 302 302 302 302 302 302 302 302 302 301 301 300 299 299 298 297 296 295 295 294 293 293 292 292 292 291 291 291 291 290 290 290 290 290 289 289 289 289 289 289 289 289 289 289 289 289 289 289 289 289 289 289 289 288 288 288 288 288 288 288 288 288 288 288 289 289 289 289 289 289
310 310 309 309 308 307 306 306 306 305 305 304 303 303 303 302 302 302 301 301 301 301 301 301 301 300 300 299 298 297 295 294 293 293 292 292 291 291 291 290 290 290 290 289 289 289 289 289 289 289 289 289 289 289 288 288 288 288 288 288 288 288 288 288 288 288 288 288 288 288 288 288 288 288 287 287 287 287 287 287 287 287 288 288 288 288
310 309 308 307 307 306 305 305 305 304 304 303 303 302 302 302 301 301 301 301 301 301 301 300 300 299 298 297 295 294 293 292 291 290 290 290 290 289 289 289 289 289 289 289 289 288 288 289 289 289 289 289 289 289 289 288 288 288 288 288 288 288 288 288 288 288 288 288 288 288 288 288 288 287 287 287 287 287 287 287 287 287 287 287 287 287
308 308 307 306 306 305 304 304 304 304 303 303 302 302 301 301 301 301 301 300 300 300 299 299 298 296 295 294 292 291 291 290 290 289 289 289 289 289 289 289 289 289 289 288 288 288 289 289 289 289 289 289 289 289 289 289 289 289 288 288 288 288 288 288 288 288 288 288 288 288 288 287 287 287 287 287 287 287 287 287 287 287 287 287 287 287
307 306 306 305 305 304 304 303 303 302 302 302 301 301 301 301 300 300 300 300 299 299 298 297 295 294 292 291 291 290 290 289 289 289 289 289 289 289 289 289 289 288 288 288 288 289 289 289 289 289 289 289 289 289 289 289 289 289 288 288 288 288 288 288 288 288 288 288 288 287 287 287 287 287 287 287 287 287 287 287 287 287 287 287 287 287
306 305 305 304 304 303 303 303 302 301 301 301 301 301 300 300 300 299 299 298 298 297 296 294 293 291 291 290 290 290 289 289 289 288 288 288 288 288 288 288 288 288 288 288 288 288 288 288 288 288 288 288 288 288 288 288 288 288 288 288 288 288 288 288 288 288 287 287 287 287 287 287 287 287 287 287 287 287 287 287 287 287 287 287 287 286
305 304 304 304 303 303 302 302 301 301 300 300 300 300 300 299 299 299 298 297 296 295 293 292 291 290 290 289 289 289 289 288 288 288 288 288 288 288 288 288 288 288 288 288 288 288 288 288 288 288 288 288 288 288 288 288 288 288 288 288 288 288 288 288 287 287 287 287 287 287 287 287 287 287 287 287 287 287 287 287 287 287 286 286 286 286
304 304 303 303 302 302 301 301 300 300 300 299 299 299 298 298 297 296 295 294 293 292 291 290 290 289 289 288 288 288 288 288 288 287 287 287 288 288 288 288 288 288 288 288 288 288 288 288 288 288 288 288 288 288 288 288 288 288 288 288 288 288 288 287 287 287 287 287 287 287 287 287 287 287 287 287 287 287 287 287 287 286 286 286 286 286
303 303 302 302 301 301 300 300 299 299 298 298 298 297 297 296 295 294 293 292 291 290 290 289 289 288 288 288 288 288 288 287 287 287 287 288 288 288 288 288 288 287 287 288 288 288 288 288 288 288 288 288 288 288 288 288 288 288 288 288 287 287 287 287 287 287 287 287 287 287 287 287 287 287 287 287 287 287 287 287 286 286 286 286 286 286
302 302 301 300 300 299 299 299 298 298 297 297 296 296 295 294 293 292 291 290 290 289 289 289 288 288 288 288 288 288 287 287 287 287 288 288 288 288 288 288 287 287 287 287 288 288 288 288 288 288 288 288 288 288 288 288 288 288 288 287 287 287 287 287 287 287 288 288 288 288 288 288 288 287 287 287 287 287 287 287 287 286 286 286 286 286
301 300 299 299 298 298 297 297 297 296 296 295 294 293 292 291 291 290 290 289 289 289 288 288 287 287 287 287 288 288 288 288 288 288 288 288 288 288 288 288 287 287 287 287 287 288 288 288 288 288 288 288 288 288 288 288 288 288 288 288 287 287 288 288 288 288 288 288 288 288 288 288 288 288 288 288 287 287 287 287 287 287 287 287 287 287
299 298 298 297 297 296 296 295 295 294 293 293 292 291 291 290 290 289 289 288 288 288 288 287 287 287 287 287 288 288 288 288 288 288 287 287 288 288 288 287 287 287 287 287 287 288 288 288 288 288 288 288 288 288 288 288 288 288 288 288 288 288 288 288 288 288 288 288 288 288 288 288 288 288 288 288 288 288 288 288 287 287 287 287 287 287
297 296 296 295 295 295 294 293 293 292 291 291 290 290 289 289 289 288 288 288 287 287 287 287 287 287 286 287 288 288 288 288 288 288 287 287 287 288 287 287 287 287 287 287 287 288 288 288 288 288 288 288 288 288 288 288 288 288 288 288 289 289 289 289 289 289 289 289 289 288 288 288 288 288 288 288 288 288 288 288 288 288 288 288 288 288
295 294 294 293 293 293 292 292 291 291 290 290 289 289 289 289 288 288 288 287 287 287 287 287 287 286 286 286 287 288 288 288 288 287 287 287 287 287 287 287 287 287 287 287 288 288 288 288 288 288 288 288 288 288 288 288 289 289 289 289 289 289 289 289 289 289 289 289 289 289 288 288 288 288 288 288 288 288 288 288 288 288 288 288 288 288
293 292 292 292 291 291 291 290 290 290 289 289 289 289 288 288 288 288 287 287 287 287 287 287 287 286 286 286 287 287 288 288 287 287 287 287 287 287 287 287 287 287 287 287 288 288 288 288 288 288 288 288 288 288 288 289 289 289 289 289 289 289 289 289 289 289 289 289 289 289 289 289 288 288 288 288 288 288 288 288 288 288 288 288 288 288
291 291 291 290 290 290 290 290 290 289 289 289 288 288 288 288 287 287 287 287 287 287 287 287 287 287 286 286 286 287 288 288 287 287 287 287 287 287 287 287 287 287 287 287 288 288 288 288 288 289 289 289 289 289 289 289 289 289 289 289 289 289 289 289 289 289 289 289 289 289 289 289 289 288 288 288 288 288 288 288 288 288 288 288 288 288
290 290 290 290 290 290 290 289 289 289 289 288 288 288 287 287 287 287 287 287 287 287 287 287 287 287 287 286 286 287 287 287 287 287 287 287 287 287 287 287 287 287 287 288 288 288 289 289 289 289 289 289 289 289 289 289 289 289 289 289 289 289 289 289 289 289 289 289 289 289 289 289 289 289 289 288 288 288 288 288 288 288 288 288 288 288
289 289 289 289 289 289 289 289 289 288 288 288 288 287 287 287 287 287 287 287 287 287 287 287 287 287 287 286 286 287 287 287 287 287 287 286 286 287 287 287 287 287 288 288 288 289 289 289 289 289 289 289 289 289 289 289 289 289 289 289 289 289 289 289 289 289 289 289 289 289 289 289 289 289 289 289 289 288 288 288 288 288 288 288 288 288
289 289 289 289 289 288 288 288 288 288 288 287 287 287 287 287 287 287 287 287 287 287 287 287 287 287 287 286 286 287 287 287 287 287 287 286 286 287 287 287 287 288 288 288 288 289 289 289 289 289 289 289 289 289 289 289 289 289 289 289 289 289 289 289 289 289 289 289 289 289 289 289 289 289 289 289 289 289 288 288 288 288 288 288 288 288
288 288 288 288 288 288 288 288 288 288 287 287 287 287 287 287 287 287 287 287 287 287 287 287 287 286 286 286 287 287 287 287 287 287 287 286 286 286 287 287 288 288 288 288 289 289 289 289 289 289 289 289 289 289 289 289 289 289 289 289 289 289 289 289 289 289 289 289 289 289 289 289 289 289 289 289 289 288 288 288 288 288 288 288 288 288
288 288 288 288 288 288 288 288 288 287 287 287 287 287 287 287 287 287 287 287 287 287 287 286 286 286 286 286 286 286 287 287 287 287 287 287 286 287 287 288 288 288 288 288 289 289 289 289 289 289 289 289 289 289 289 289 289 289 289 289 289 289 289 289 289 289 289 289 289 289 289 289 289 289 289 289 289 288 288 288 288 288 288 288 288 288
288 288 288 288 288 288 288 288 287 287 287 287 287 287 287 287 287 286 286 286 286 287 287 286 286 286 286 286 286 286 286 287 287 287 286 286 287 287 288 288 288 288 288 288 288 289 289 289 289 289 289 289 289 289 289 289 289 289 289 289 289 289 289 289 289 289 289 289 289 289 289 289 288 288 288 288 288 288 288 288 288 288 288 288 288 288
288 288 288 288 288 288 288 287 287 287 287 287 287 287 287 287 287 286 286 286 287 287 287 287 286 286 286 286 286 286 286 287 287 286 286 287 287 287 288 288 288 288 288 288 288 289 289 289 289 289 289 289 288 288 288 288 289 289 289 289 289 289 289 289 289 289 289 289 289 289 289 289 289 288 288 288 288 288 288 288 288 288 288 288 288 288
288 288 288 287 287 287 287 287 287 287 287 287 287 287 287 287 287 287 286 287 287 287 287 287 286 286 286 286 286 286 286 287 287 287 287 287 287 288 288 288 288 288 288 288 288 289 289 289 289 289 288 288 288 288 288 288 288 288 288 288 288 288 289 289 289 289 289 289 289 289 289 289 289 289 288 288 288 288 288 288 288 288 288 288 288 288
288 288 287 287 287 287 287 287 287 287 287 287 287 287 287 287 287 286 286 287 287 287 287 287 286 286 286 286 286 286 286 286 287 287 287 287 287 288 288 288 288 288 289 289 288 289 289 289 289 288 288 288 288 288 288 288 288 288 288 288 288 288 288 288 289 289 289 289 289 289 289 289 289 289 289 289 289 288 288 288 288 288 288 288 288 288
288 288 287 287 287 287 287 287 287 287 287 287 287 287 287 287 287 286 286 286 287 287 287 286 286 286 286 286 286 286 286 286 287 287 287 287 287 287 287 288 288 288 289 289 289 289 289 289 289 288 288 288 288 288 288 288 288 288 288 288 288 288 288 288 288 288 289 289 289 289 289 289 289 289 289 289 289 289 289 289 288 288 288 288 289 288
288 287 287 287 287 287 287 287 287 287 286 286 286 286 287 286 286 286 286 286 286 286 286 286 286 286 286 286 286 286 285 286 287 287 287 287 287 287 287 287 288 288 289 289 289 289 289 289 289 289 288 288 288 288 288 288 288 288 288 288 288 288 288 288 288 288 288 288 288 288 289 289 289 289 289 289 289 289 289 289 289 289 289 289 289 289
287 287 287 287 287 287 287 286 286 286 286 286 286 286 286 286 286 286 286 286 286 286 286 286 286 286 286 286 286 286 285 285 286 287 287 287 287 287 287 287 288 288 288 289 289 289 288 288 289 288 288 288 288 288 288 288 288 288 288 288 288 288 288 288 288 288 288 288 288 288 288 288 288 288 289 289 289 289 289 289 289 289 289 289 289 289
287 287 287 286 286 286 286 286 286 286 286 286 286 286 286 286 286 286 286 286 286 286 286 286 286 286 286 286 286 286 285 286 286 287 287 287 287 287 287 287 288 288 288 288 289 289 288 288 289 289 288 288 288 288 288 288 288 288 288 288 288 288 288 288 288 288 288 288 288 288 288 288 288 288 288 289 289 289 289 289 289 289 289 289 289 289
288 287 287 287 287 287 287 287 287 286 286 286 286 287 287 287 287 287 287 287 287 287 286 286 286 286 286 286 286 286 285 286 286 287 287 287 287 287 287 287 288 288 288 288 288 288 288 289 289 289 289 288 288 288 288 288 288 288 288 288 289 288 288 288 288 288 288 288 288 288 288 288 288 288 288 288 288 288 288 289 289 289 289 289 289 289
288 288 288 288 287 288 288 288 288 287 287 287 287 287 287 287 287 287 287 287 287 287 287 287 286 286 286 286 286 286 285 286 286 287 287 287 287 287 287 287 287 288 288 288 288 288 288 288 289 289 289 289 288 288 288 288 288 288 288 288 289 289 289 289 289 288 288 288 288 288 288 288 288 288 288 288 288 288 288 288 288 288 289 289 289 289
287 287 287 287 287 288 288 288 288 287 287 287 287 287 287 287 287 287 287 287 287 287 287 287 287 286 286 286 286 286 285 285 286 287 287 287 287 287 287 287 287 288 288 288 288 288 288 288 288 288 289 289 289 288 288 288 288 288 288 288 288 288 288 288 288 288 288 288 288 288 288 288 288 288 288 288 288 288 288 288 288 288 288 288 288 288
286 286 287 287 287 287 287 287 287 287 287 287 287 287 287 287 287 287 287 287 287 287 287 287 287 287 286 286 286 286 285 285 286 286 286 287 287 287 287 287 287 288 288 288 288 288 288 288 288 288 288 288 289 289 288 288 288 288 288 288 288 288 288 288 288 288 288 288 288 288 288 288 288 288 288 288 288 288 288 288 288 288 288 288 288 288
286 286 287 287 287 287 287 287 287 287 287 287 287 287 287 287 287 287 287 287 287 287 287 287 287 287 287 286 286 286 286 286 286 286 286 286 286 287 287 287 287 287 288 288 288 288 288 288 288 288 288 288 288 288 288 288 288 288 288 288 288 288 288 288 288 288 288 288 288 288 288 288 288 288 288 288 288 288 288 288 288 288 288 288 288 288
286 287 287 287 287 287 287 287 287 287 287 287 287 287 287 287 287 287 286 286 286 286 286 286 287 287 287 287 286 286 286 286 286 286 286 286 286 287 287 287 287 287 287 287 288 288 288 288 288 288 288 288 288 288 288 288 288 288 288 288 287 287 287 287 287 287 287 288 288 288 288 288 288 288 288 288 288 288 288 288 287 287 287 287 287 287
286 286 287 287 287 287 287 287 287 287 287 287 287 287 287 287 287 286 286 286 286 286 286 286 286 287 287 287 286 286 286 286 286 286 286 286 286 287 287 287 287 287 287 287 287 287 287 287 288 288 288 288 288 288 288 288 288 288 288 288 288 287 287 287 287 287 287 287 287 287 287 287 287 287 288 288 288 288 288 288 287 287 287 287 287 287
286 286 286 286 287 287 287 287 287 287 287 287 287 287 287 287 287 286 286 286 286 286 286 286 286 286 286 286 286 286 286 286 286 286 286 286 286 287 287 287 287 287 287 287 287 287 287 287 287 287 288 288 288 288 288 288 288 288 288 288 287 287 287 287 287 287 287 287 287 287 287 287 287 287 287 287 287 287 287 287 287 287 287 287 287 287
286 286 286 286 286 287 287 287 287 287 287 287 287 287 287 287 287 287 286 286 286 286 286 286 286 286 286 286 286 286 286 286 286 286 286 286 286 287 287 287 287 287 287 287 287 287 287 287 287 287 287 288 288 288 288 288 287 287 287 287 287 287 287 287 286 286 286 286 286 286 286 286 286 286 286 287 287 287 287 287 287 287 287 287 287 287
286 286 286 286 286 287 287 287 287 286 286 286 286 286 286 286 287 287 287 286 286 286 286 287 287 287 286 286 286 286 286 286 286 286 286 286 286 286 287 287 287 287 287 287 287 287 287 287 287 287 287 287 288 288 288 288 287 287 287 287 287 287 287 287 286 286 286 286 286 286 286 286 286 286 286 286 286 286 286 286 286 286 286 286 286 286
286 286 286 286 286 286 286 286 286 286 286 286 286 286 286 286 286 286 286 286 286 286 286 286 287 287 287 286 286 285 285 286 286 286 286 286 286 287 287 287 287 287 287 287 287 287 287 287 287 287 287 287 288 288 288 288 287 287 287 287 287 287 287 286 286 286 286 285 285 285 285 285 285 285 285 285 285 285 285 285 285 285 286 286 286 286
286 286 286 286 286 286 286 286 286 286 286 286 286 286 286 286 286 286 286 286 286 286 286 286 286 286 287 286 286 285 285 285 286 286 286 286 286 286 287 287 287 287 287 287 287 287 287 287 287 287 287 287 287 287 287 287 287 287 287 286 286 286 286 286 286 286 286 285 285 285 285 285 285 285 285 285 285 285 285 285 285 285 285 285 285 285
286 286 286 286 286 286 286 286 286 286 286 286 286 286 286 286 286 286 286 286 286 286 286 286 286 286 286 286 286 285 285 285 285 286 286 286 286 286 286 286 287 287 287 287 287 287 287 287 287 287 287 287 287 287 287 287 287 287 286 286 286 286 286 286 286 285 285 285 285 285 285 285 285 285 285 285 285 285 285 285 285 285 285 285 285 285
286 286 286 286 286 286 286 286 286 286 286 286 286 286 286 286 286 286 286 286 286 285 285 286 286 286 286 286 286 286 285 285 285 285 286 286 286 286 286 286 286 286 286 287 287 287 287 287 287 287 287 287 287 287 287 287 287 286 286 286 286 286 286 286 285 285 285 285 285 285 285 285 285 286 286 286 286 286 286 286 286 285 285 285 285 285
286 286 286 286 286 286 285 285 286 286 286 286 286 285 285 285 286 286 286 286 285 285 285 285 285 286 286 286 286 286 285 285 285 285 286 286 286 286 286 286 286 286 286 286 286 287 287 287 287 287 287 287 287 287 287 287 286 286 286 286 286 286 286 286 285 285 285 285 285 285 285 285 286 286 286 286 286 286 286 286 286 286 286 285 285 285
286 286 286 286 285 285 285 285 285 285 285 285 285 285 285 285 285 285 285 285 285 285 285 285 285 285 286 286 285 285 285 285 285 285 285 286 286 286 286 286 286 286 286 286 286 286 287 287 287 287 287 287 287 287 287 287 286 286 286 286 285 285 285 285 285 285 285 285 285 285 285 285 285 285 285 285 286 286 286 286 286 286 285 285 285 285
286 286 286 286 285 285 285 285 285 285 285 285 285 285 285 285 285 285 285 285 285 285 285 285 285 285 285 285 285 285 285 285 285 285 285 286 286 286 286 286 286 286 286 286 286 286 286 287 287 287 287 287 286 286 286 286 286 286 285 285 285 285 285 285 285 285 285 285 285 285 285 285 285 285 284 284 285 285 286 286 285 285 285 285 285 285
286 286 286 286 285 285 285 285 285 285 285 285 285 285 285 285 285 285 285 285 285 285 285 285 285 285 285 285 285 285 285 285 285 285 285 285 285 286 286 286 286 286 286 286 286 286 286 287 287 287 287 287 286 286 286 286 286 286 285 285 285 285 285 285 285 285 285 285 285 285 285 285 284 284 283 283 284 284 285 285 285 285 285 285 285 285
Wind_Speed
24 24 23 21 20 20 19 18 17 17 17 16 16 15 13 12 11 11 10 9 9 8 8 8 8 9 8 8 8 8 8 9 9 10 10 11 11 11 11 11 11 12 12 12 12 13 13 13 14 14 14 15 15 15 15 16 16 16 16 16 16 16 16 16 15 15 15 16 16 16 16 17 17 17 17 17 17 17 18 18 18 18 18 18 17 16
23 22 21 20 19 18 18 17 16 16 16 15 14 13 12 11 11 10 10 9 9 9 8 8 9 9 9 9 9 9 10 10 11 11 12 12 12 13 13 13 13 13 13 13 14 14 14 15 15 15 15 16 16 16 16 16 16 17 17 17 17 17 17 16 16 16 17 17 17 17 17 17 17 17 17 17 17 17 18 18 18 18 18 17 17 16
21 20 20 19 18 17 17 16 16 15 15 14 13 12 11 11 10 10 10 10 9 9 9 9 9 10 10 10 10 10 10 11 12 12 13 13 13 14 14 14 14 14 14 14 14 15 15 15 15 15 15 16 16 16 16 16 17 17 17 17 17 17 17 17 16 17 17 17 17 17 17 17 17 17 16 16 16 17 17 18 18 18 17 17 17 16
20 19 19 18 17 16 16 16 15 15 13 12 12 12 11 10 10 10 10 10 10 10 10 10 11 11 11 11 11 11 11 12 12 13 13 14 14 14 14 14 14 14 14 14 14 14 15 15 15 15 15 15 15 15 16 16 16 16 16 16 16 16 16 16 16 16 16 16 16 16 16 16 16 16 16 16 16 17 17 17 17 17 17 17 17 16
19 18 18 17 16 16 16 15 14 13 12 12 11 11 10 10 10 10 10 11 11 11 11 12 12 12 12 12 12 12 12 13 13 13 13 14 14 14 14 14 14 14 14 14 14 14 14 14 15 15 15 15 15 15 15 15 15 15 15 15 15 15 15 15 15 15 15 15 15 15 15 15 15 15 15 16 16 16 16 16 16 17 17 16 16 16
18 17 16 15 15 15 15 14 13 12 11 11 11 10 10 10 10 10 11 11 12 12 13 13 13 13 13 13 13 13 13 13 13 13 13 13 13 13 13 13 13 13 13 13 14 14 14 14 14 14 14 14 14 14 14 14 14 14 14 14 14 14 14 14 14 14 14 14 14 14 14 14 14 15 15 15 15 15 15 15 16 16 16 16 16 15
17 16 15 14 14 14 14 13 12 11 11 11 11 10 10 10 10 11 11 12 13 14 14 15 15 15 14 13 13 12 12 12 12 12 12 12 12 12 13 13 13 13 13 13 13 14 14 14 14 14 14 14 14 14 14 14 14 14 13 13 13 13 14 14 14 14 14 14 14 14 14 14 15 15 15 14 14 14 14 15 15 15 15 15 15 15
16 15 14 14 13 13 13 12 11 11 11 11 11 10 11 11 11 11 12 13 14 15 15 16 16 15 14 13 12 12 11 11 11 11 11 12 12 12 12 12 12 12 12 13 13 13 14 14 14 14 14 14 14 14 14 13 13 13 13 13 13 13 13 13 13 13 13 14 14 14 14 15 15 15 15 15 14 14 14 14 14 14 14 14 14 14
15 14 13 13 12 12 11 11 11 11 11 11 11 11 11 11 12 13 13 14 15 15 15 15 15 14 13 12 11 11 11 11 11 11 11 11 12 12 12 12 11 12 12 12 13 13 13 13 13 13 13 13 14 14 13 13 13 13 13 12 12 12 12 12 13 13 13 13 14 14 14 14 15 15 15 15 14 14 13 13 13 13 13 13 13 12
14 13 13 12 11 11 11 11 11 11 11 11 12 12 12 12 13 14 15 15 15 15 15 14 13 12 12 11 11 11 11 11 11 11 11 12 12 12 12 11 11 11 11 12 12 12 12 13 13 13 13 13 13 13 13 13 13 13 12 12 12 12 12 12 12 12 12 13 13 13 13 14 14 14 14 14 14 13 13 13 12 12 12 11 11 11
13 12 12 11 11 11 11 11 12 12 12 12 13 13 14 14 15 15 16 16 15 14 13 12 11 11 10 11 11 11 11 11 11 11 11 11 11 11 11 11 10 10 11 11 11 12 12 12 12 12 12 13 13 13 13 13 12 12 12 12 11 11 11 11 11 11 12 12 12 12 12 13 13 13 13 13 13 12 12 12 12 11 10 10 10 9
12 12 12 11 11 11 12 13 13 14 14 13 13 13 14 15 15 15 15 15 14 13 12 11 10 10 10 10 11 11 11 11 11 10 10 11 11 11 11 10 10 10 10 11 11 11 11 11 11 11 12 12 12 12 12 12 12 11 11 11 11 10 10 10 10 10 10 11 11 11 11 11 11 11 11 11 11 11 11 11 11 10 9 9 9 8
12 12 12 12 12 12 13 13 14 14 14 14 14 14 14 14 14 14 14 14 13 12 11 10 10 10 10 10 11 11 11 10 10 9 9 10 11 11 10 10 10 10 10 10 10 10 10 10 10 10 10 10 11 11 11 11 10 10 10 10 10 9 9 9 9 9 9 9 9 9 10 9 10 10 10 10 10 10 10 10 9 9 8 8 8 8
12 12 13 13 13 13 14 14 14 15 15 15 14 14 13 14 14 13 13 12 12 11 10 10 10 10 10 11 11 11 10 9 9 8 9 10 11 10 10 9 9 9 10 10 10 9 9 9 9 9 9 9 9 9 9 9 9 9 9 9 8 8 8 8 8 8 8 8 8 8 8 8 8 8 8 8 8 8 8 8 8 8 8 7 7 7
13 13 13 13 14 14 14 15 15 15 15 15 14 13 13 13 12 12 12 11 11 11 11 11 11 11 11 11 11 11 10 9 8 7 8 10 11 10 9 9 9 9 9 9 9 9 8 8 8 8 8 8 8 8 8 8 8 8 8 7 7 7 7 7 6 6 7 7 7 7 7 7 7 7 7 7 7 7 7 7 7 7 7 7 7 7
13 13 14 14 14 14 15 15 15 15 14 14 13 12 12 11 11 10 10 10 11 11 11 11 11 11 11 11 11 10 10 9 8 7 7 10 11 10 9 8 8 9 9 8 8 8 8 7 7 7 7 7 7 7 7 7 7 7 7 7 6 6 6 6 6 6 6 6 6 6 7 7 7 7 7 6 6 6 6 6 6 6 6 6 6 6
14 14 14 14 14 15 15 14 14 13 13 12 12 11 10 10 9 9 9 9 10 10 10 10 10 10 10 10 10 10 10 9 8 7 8 9 10 9 8 8 8 8 8 8 8 7 7 7 6 6 6 6 6 7 7 7 7 7 7 6 6 6 6 5 5 6 6 6 6 6 6 6 6 6 6 6 6 6 6 6 6 5 5 5 6 6
13 14 14 14 14 14 14 14 13 12 11 11 10 9 8 8 8 8 9 9 9 9 9 9 9 9 9 10 10 10 9 9 8 7 7 9 9 8 7 7 7 7 7 7 7 7 6 6 6 6 6 6 6 6 6 7 7 7 7 7 6 6 6 6 6 6 6 6 6 6 6 6 7 7 6 6 6 6 6 6 6 5 6 6 6 6
13 13 13 13 13 13 13 12 11 11 10 9 8 8 8 8 8 8 8 9 9 9 9 9 9 8 8 9 10 10 9 8 7 7 6 7 8 7 6 6 6 6 7 7 6 6 6 6 5 5 5 5 6 6 6 7 7 7 7 7 7 7 6 6 6 6 6 6 6 6 6 6 7 7 7 7 6 6 6 6 6 6 6 6 6 6
12 12 12 13 12 12 11 11 10 9 8 8 7 7 7 7 7 8 8 9 9 9 9 9 8 8 8 8 9 9 9 8 7 6 6 6 7 6 6 5 5 5 6 6 6 6 6 5 5 5 5 5 6 6 6 7 7 7 7 7 7 7 7 7 7 7 7 7 7 7 7 7 7 7 7 7 7 7 6 6 6 6 6 6 7 7
11 11 12 12 11 11 10 9 8 8 8 7 7 7 7 7 8 8 8 9 9 9 8 8 8 8 8 8 8 9 8 7 6 5 5 5 6 6 5 4 4 4 5 5 6 6 5 5 5 5 5 5 6 6 6 6 7 7 7 7 8 8 8 8 8 8 8 8 8 8 7 7 7 8 8 8 8 8 7 7 7 7 7 7 7 7
11 11 11 11 11 10 9 8 8 8 8 8 8 8 8 8 8 9 9 9 9 8 8 8 8 7 7 7 8 8 8 7 6 5 4 4 5 6 4 4 3 3 4 4 5 5 5 5 5 5 5 6 6 6 6 6 7 7 7 7 8 8 8 8 9 9 9 9 9 8 8 8 8 8 8 9 9 8 8 8 8 8 8 8 8 8
10 10 10 10 10 9 9 8 8 8 8 8 8 8 9 9 9 9 9 9 9 9 8 8 8 7 7 7 8 8 7 7 6 5 4 4 4 5 4 3 3 3 3 4 5 5 5 5 5 5 6 6 6 6 6 7 7 7 7 7 8 8 8 9 9 9 9 9 9 9 9 9 9 9 9 9 9 9 9 9 9 9 9 9 9 9
10 10 10 10 10 9 9 9 9 9 9 9 9 9 9 9 9 9 9 9 9 9 8 8 7 7 7 7 7 7 7 6 6 5 5 4 4 4 4 3 2 2 3 4 5 5 5 5 5 5 6 6 6 6 6 7 7 7 7 7 8 8 8 9 9 9 10 10 10 10 10 10 10 10 10 10 10 10 10 10 10 10 10 10 10 10
10 10 10 10 10 10 10 10 9 9 9 9 9 10 9 9 9 9 9 9 9 9 8 8 7 7 7 7 7 7 6 6 6 5 5 5 4 4 4 3 2 2 2 4 5 5 5 5 6 6 6 6 6 6 6 7 7 7 7 8 8 8 8 9 9 9 10 10 10 10 11 11 11 11 11 11 11 11 11 11 11 11 11 11 12 12
10 10 10 10 10 10 10 10 9 9 9 9 9 9 9 9 9 9 9 9 9 9 8 7 7 7 6 6 6 7 6 6 6 6 5 5 4 3 4 3 3 2 2 4 5 5 5 6 6 6 5 5 5 6 7 7 8 8 8 8 8 9 9 9 9 9 10 10 10 11 11 11 11 12 12 12 12 12 12 12 12 12 13 13 13 13
10 10 10 10 10 10 10 10 9 9 9 9 9 9 9 9 9 9 9 9 9 9 8 7 6 6 6 7 7 7 7 6 6 6 5 4 4 3 3 3 3 2 2 3 4 5 5 6 6 5 5 5 6 6 7 8 8 9 9 9 9 9 9 10 10 10 10 10 11 11 11 11 12 12 12 12 13 13 13 13 13 14 14 14 14 15
10 10 10 10 10 10 10 10 9 9 9 9 9 9 9 9 9 9 9 9 9 8 8 7 6 6 6 7 7 7 7 6 5 6 6 5 4 4 4 4 3 3 3 3 5 6 6 6 5 5 4 5 6 7 8 8 9 9 9 9 10 10 10 10 10 10 11 11 11 11 12 12 12 12 13 13 13 13 14 14 14 15 15 15 16 16
9 9 9 9 10 10 10 10 9 9 9 10 10 9 9 9 9 9 9 9 9 8 8 7 6 6 6 7 7 7 6 6 6 6 6 5 5 5 4 4 4 4 3 4 5 6 6 5 4 4 4 6 7 8 9 9 9 9 9 9 10 10 10 10 10 11 11 11 12 12 12 12 13 13 13 13 14 14 14 14 15 15 16 16 16 16
8 9 9 9 9 9 9 9 9 9 9 10 10 9 9 9 9 9 9 9 9 8 8 8 7 7 7 7 6 6 6 6 6 6 6 6 6 5 5 4 5 5 5 5 6 7 6 5 4 4 5 7 8 9 9 9 9 9 9 9 9 10 10 10 10 11 11 11 12 12 13 13 13 13 14 14 14 14 15 15 16 16 16 17 17 17
8 8 8 8 8 8 8 9 9 9 9 9 9 9 9 9 9 9 10 9 9 9 8 8 8 8 7 7 6 5 5 6 7 7 6 7 6 6 5 5 5 5 6 6 7 8 7 7 6 6 7 8 9 9 9 9 9 8 8 8 9 9 9 10 10 11 11 11 12 12 13 13 13 14 14 15 15 15 16 16 16 17 17 17 17 17
8 8 8 8 8 8 8 8 8 8 9 9 9 10 10 10 10 10 10 10 9 9 9 9 9 8 8 8 7 6 6 7 7 7 7 7 7 6 5 5 6 6 6 7 7 8 8 9 8 7 7 8 8 9 9 9 8 8 8 8 8 8 9 9 10 10 11 11 11 12 12 13 13 14 14 15 15 16 16 16 17 17 18 18 18 18
8 7 7 7 8 8 8 8 8 9 9 9 10 10 10 10 10 10 10 10 10 10 9 9 9 9 8 8 7 7 8 8 8 7 6 7 7 6 5 6 6 6 7 7 7 8 8 10 9 8 6 6 7 8 8 8 7 7 7 7 7 8 8 9 9 9 10 10 11 11 12 12 13 13 14 14 15 15 16 16 17 17 18 18 19 19
7 7 7 7 7 8 8 8 8 9 9 9 10 10 10 10 10 10 10 10 10 10 10 9 9 9 9 8 7 7 8 8 8 7 6 7 7 6 6 6 6 7 7 8 8 8 9 9 9 8 7 6 6 7 7 7 7 7 7 7 7 7 7 8 8 8 9 9 10 11 11 12 13 13 13 14 14 15 15 16 16 17 18 18 19 19
7 7 7 7 8 8 8 7 7 8 8 9 9 9 10 10 10 10 10 10 10 10 10 9 9 9 9 8 7 7 8 9 8 7 7 7 7 7 7 7 7 7 8 8 9 9 9 9 9 9 8 7 6 6 7 7 7 7 8 7 7 7 7 7 7 8 8 8 9 10 11 11 12 13 13 14 14 14 15 15 16 16 17 17 18 18
8 8 8 8 8 8 8 8 7 7 8 8 9 9 9 9 9 10 10 10 9 9 9 9 9 9 9 8 8 7 8 9 9 9 8 8 8 8 8 8 7 8 8 9 10 10 10 10 10 9 9 8 7 6 6 7 7 7 8 8 8 8 8 7 7 7 7 8 8 9 10 10 11 12 13 13 14 14 15 15 16 16 16 17 17 17
8 8 8 9 9 9 9 8 8 8 8 9 9 9 9 9 9 9 10 9 9 9 9 9 9 9 9 9 8 8 9 10 10 9 9 8 8 8 8 8 8 8 9 10 11 11 11 11 11 10 9 9 8 7 7 6 7 7 7 7 7 8 8 7 7 7 7 7 8 8 9 9 10 11 12 13 14 14 15 15 16 16 16 16 16 17
8 8 8 9 9 9 9 9 9 9 9 9 9 9 9 9 9 9 10 10 10 10 10 10 10 9 9 9 9 9 9 10 10 10 9 9 9 9 9 9 9 9 10 10 11 12 12 12 12 11 10 9 9 8 8 7 6 6 6 6 7 7 7 7 7 7 7 7 7 8 8 9 10 10 11 12 13 14 14 15 15 15 16 16 16 16
7 8 8 9 9 9 9 9 9 9 9 9 9 9 9 9 9 10 10 10 10 10 10 10 10 10 10 10 9 9 10 10 10 10 10 10 10 10 10 10 10 10 11 11 12 12 13 13 13 13 12 11 10 9 8 8 7 7 6 6 6 6 6 6 7 7 7 7 7 8 8 9 9 10 11 12 13 13 14 14 15 15 15 15 15 16
7 7 8 8 9 9 9 9 9 9 9 10 10 10 10 10 10 10 10 10 10 11 11 11 11 11 11 10 10 10 10 10 10 10 10 10 10 10 11 11 11 11 12 12 12 12 13 13 13 13 13 12 11 10 8 8 8 8 7 7 6 6 6 7 7 7 7 7 7 8 8 9 9 10 11 11 12 13 13 14 14 15 15 16 15 15
7 7 8 8 9 9 9 9 9 10 10 10 10 10 10 10 10 10 10 11 11 11 11 11 11 11 11 11 11 11 11 11 11 11 11 11 11 11 11 11 12 12 13 13 13 13 13 13 13 13 13 13 12 11 9 9 9 9 9 8 8 7 7 7 7 7 7 8 8 8 9 9 10 10 11 11 12 13 13 14 15 15 16 16 16 16
7 7 8 8 9 9 9 10 10 10 11 11 10 10 10 10 10 10 10 10 10 11 11 11 11 11 11 11 11 11 11 11 11 11 11 11 11 11 12 12 12 13 13 14 14 14 14 14 14 13 13 13 13 12 10 9 9 9 10 10 9 9 8 8 8 8 8 8 9 9 10 10 10 11 11 12 12 13 14 14 15 16 16 17 17 17
7 8 8 9 9 9 10 10 10 11 11 11 11 11 11 11 11 11 10 10 10 11 11 12 12 12 11 11 11 11 12 12 12 12 11 11 12 12 12 13 13 13 14 14 15 15 14 14 14 14 13 13 13 13 11 10 9 9 10 11 11 10 8 8 8 9 9 9 10 10 10 11 11 12 12 12 13 14 14 15 15 16 16 17 17 18
8 8 9 9 9 10 10 10 11 11 11 11 11 11 11 11 11 11 11 11 11 12 12 12 12 12 11 11 10 11 12 12 12 12 12 12 12 12 13 13 14 14 14 15 15 15 15 15 14 14 14 14 13 13 13 12 10 10 10 11 11 11 10 10 10 10 10 10 10 10 11 11 12 12 13 13 13 14 15 15 16 16 17 17 18 18
8 9 9 9 10 10 10 11 11 11 11 11 11 11 11 12 12 12 11 11 12 12 13 13 13 12 12 11 10 11 12 12 12 12 12 12 12 13 13 14 14 15 15 15 15 16 16 15 15 15 15 15 14 14 13 13 12 11 11 11 12 11 11 11 10 10 10 10 10 11 11 11 12 13 13 13 13 14 14 15 15 16 17 17 18 19
9 9 10 10 10 10 10 11 11 11 11 11 11 11 12 12 12 12 12 12 12 12 13 13 13 13 12 11 11 11 12 12 13 13 13 13 13 13 13 14 14 15 16 16 16 16 16 16 16 16 16 16 15 15 14 13 13 12 12 12 12 11 11 10 10 11 11 11 11 11 11 12 13 14 14 14 14 14 14 14 14 15 15 16 17 18
10 10 10 11 11 11 11 11 11 11 11 11 11 12 12 13 13 13 13 13 13 13 14 14 14 13 13 12 11 11 12 12 13 13 13 13 13 13 13 14 14 15 16 16 16 16 16 16 16 16 16 16 16 15 14 13 13 13 13 13 13 12 11 10 10 11 11 11 11 11 12 13 14 15 16 16 15 15 14 14 13 13 14 14 15 16
11 11 11 12 12 12 12 12 12 12 12 12 12 12 13 13 14 14 14 13 13 14 14 14 14 14 13 13 12 12 12 13 13 13 13 13 13 13 13 14 14 15 16 16 16 16 17 17 16 16 16 16 16 16 15 14 13 13 13 13 13 13 12 11 11 11 11 12 12 13 14 15 16 17 17 17 17 17 16 16 16 15 14 14 14 14
11 11 12 12 12 12 12 12 13 13 13 12 12 13 13 14 14 14 14 14 14 14 15 15 15 14 14 13 13 13 13 13 13 14 14 13 13 13 14 14 14 15 15 16 16 16 16 17 16 16 15 15 16 16 16 14 13 13 13 13 13 13 13 12 12 12 12 13 13 14 16 17 18 19 19 20 20 20 20 20 19 18 16 16 15 15
11 11 12 12 12 12 12 12 13 13 13 13 13 13 14 14 14 14 14 15 15 15 15 15 15 15 14 14 13 13 13 13 14 14 14 13 13 13 14 14 14 15 15 15 16 16 17 17 17 16 15 14 14 15 16 15 14 14 13 13 13 13 13 13 13 13 13 14 15 16 18 19 19 20 21 21 22 23 23 22 21 20 18 17 15 15
11 11 11 12 12 12 12 12 13 13 13 13 14 14 14 14 14 15 15 15 15 15 15 15 15 15 15 14 14 13 13 13 14 14 14 14 13 14 14 14 15 15 15 15 16 16 17 18 18 17 14 12 12 13 14 14 15 14 14 13 13 13 14 14 14 14 14 15 16 18 19 20 21 22 22 22 23 24 25 24 23 21 19 17 15 15
Wind_Direction
270 273 275 277 278 279 282 286 287 286 283 281 281 280 278 275 272 269 267 264 262 261 262 264 268 271 274 277 280 284 287 290 291 292 293 293 292 292 291 291 290 289 288 288 287 287 287 286 287 287 287 287 288 288 288 288 288 288 288 288 287 287 286 286 285 284 283 282 282 283 285 287 288 289 290 290 290 289 288 288 288 289 289 290 290 289
271 273 274 276 278 280 283 286 285 282 279 277 276 274 272 270 268 266 264 262 260 258 258 261 266 270 273 276 279 283 286 288 289 290 291 291 290 290 289 289 288 287 287 286 286 285 285 285 285 285 286 286 286 286 286 286 286 286 286 286 285 285 285 285 285 284 284 284 284 285 287 287 287 288 289 288 287 286 285 285 285 286 286 286 286 285
271 273 274 277 279 281 283 283 280 277 274 272 270 269 268 266 265 264 263 262 261 259 259 261 265 269 273 276 280 283 285 287 288 288 288 288 288 288 287 287 287 286 286 286 286 286 285 285 285 285 285 285 285 285 285 285 285 285 284 284 284 284 284 283 283 283 283 283 284 285 285 285 285 285 285 284 282 281 281 282 283 283 283 283 283 282
270 271 273 277 280 281 279 277 274 271 269 266 264 263 263 262 261 262 262 262 262 263 263 264 267 270 274 277 281 283 285 286 286 286 286 286 286 285 286 286 286 286 287 286 287 286 286 286 286 285 285 285 285 285 285 285 285 285 284 284 284 283 283 283 282 282 282 282 282 282 282 282 281 281 281 280 279 279 279 279 279 280 280 280 280 279
270 270 273 276 278 276 273 270 268 266 263 260 258 257 258 257 258 260 262 263 264 265 267 268 269 272 275 279 281 283 284 285 284 284 284 284 284 284 285 285 286 286 287 287 287 287 286 286 286 286 285 285 285 285 284 284 284 284 285 284 284 284 283 283 283 282 281 281 281 280 280 279 279 279 279 278 279 278 278 277 277 277 277 278 278 278
269 270 272 273 272 269 268 265 262 259 256 254 253 252 253 254 256 258 260 263 265 267 269 271 273 275 278 281 283 284 284 283 283 283 283 283 283 283 284 284 285 285 286 286 286 285 285 285 285 285 285 285 285 285 284 284 284 284 285 285 285 285 285 285 284 284 284 283 282 282 281 281 280 279 279 280 280 280 280 279 277 277 276 276 277 277
268 267 268 266 264 263 261 259 255 252 249 249 250 250 251 253 255 257 260 264 267 270 273 275 277 279 282 284 284 284 283 282 281 281 281 282 282 282 282 282 283 284 284 284 284 284 284 285 285 286 286 287 286 286 286 285 285 285 285 285 285 285 286 286 286 286 286 286 285 285 285 284 284 283 283 283 283 283 282 281 279 278 277 276 276 276
262 262 261 259 258 256 255 252 249 247 246 247 249 250 252 254 257 259 262 266 270 273 276 279 281 283 285 286 286 284 283 282 281 282 282 283 282 282 283 283 284 285 286 285 285 286 286 287 288 288 289 289 289 289 288 288 287 287 286 286 286 286 287 286 287 287 288 288 287 287 287 287 287 287 287 287 286 286 285 283 281 279 277 276 275 274
254 255 255 253 251 250 249 247 245 244 244 245 247 249 252 256 260 263 266 269 271 274 277 281 283 286 288 288 288 287 286 286 287 287 288 288 288 287 287 288 289 289 289 289 289 289 289 290 291 291 291 291 291 291 291 290 290 290 289 289 289 288 288 287 287 288 288 288 288 288 288 288 288 289 289 289 289 288 287 284 282 280 277 275 273 271
248 249 249 248 246 244 243 242 243 245 245 245 247 250 252 256 260 265 268 269 271 273 276 279 282 285 288 290 290 290 291 292 293 293 293 291 290 289 289 290 291 291 291 290 290 290 291 291 292 292 292 292 292 292 292 292 292 292 292 291 290 289 289 288 288 288 288 287 287 287 288 288 289 289 290 291 291 290 288 286 284 281 278 274 270 265
243 243 244 244 243 242 241 241 243 246 248 249 251 254 256 258 261 264 267 269 271 272 274 276 279 283 286 288 290 291 292 293 294 293 292 290 289 289 290 291 291 291 290 289 289 290 290 291 291 291 291 291 292 292 292 292 293 293 292 292 291 290 290 289 288 288 287 287 287 287 287 288 289 289 290 291 291 290 290 288 286 284 280 274 267 260
239 240 240 240 241 242 242 243 246 249 252 252 254 256 260 262 265 266 268 269 271 272 273 276 278 281 283 284 286 287 289 290 290 289 288 286 285 286 289 291 292 291 290 289 289 289 290 289 289 289 290 291 292 292 292 293 293 293 292 292 291 291 290 289 288 288 287 287 287 287 288 288 289 290 291 291 291 291 290 289 288 286 281 275 266 258
237 238 239 239 241 243 244 246 248 251 253 254 256 259 263 267 269 269 269 270 271 274 277 280 281 282 282 283 284 284 285 285 285 283 281 280 280 283 286 289 290 290 289 288 289 289 288 288 288 289 290 291 291 292 292 292 292 292 292 292 291 291 291 290 290 289 288 288 288 289 290 291 292 293 293 293 293 293 291 290 289 287 283 275 266 257
238 240 241 242 243 245 246 247 250 252 254 257 259 262 264 266 267 268 268 269 272 276 280 282 283 284 282 282 283 284 284 284 282 279 278 277 278 280 283 287 288 287 287 287 287 287 287 287 288 289 290 291 291 291 292 292 292 293 293 293 293 293 293 292 292 292 291 291 292 293 294 296 297 299 300 300 300 298 296 293 291 288 284 277 269 260
243 245 246 247 248 249 249 250 252 254 257 259 260 260 260 259 260 261 263 266 270 275 278 280 281 282 281 280 281 283 283 281 279 278 278 278 279 281 285 287 287 286 286 286 287 286 287 287 288 289 291 291 291 291 292 293 293 294 295 296 296 296 296 296 295 295 295 295 297 298 300 301 304 306 307 308 307 305 303 299 295 292 288 282 275 267
249 250 251 252 253 253 254 254 255 256 258 259 258 256 254 253 253 255 258 263 267 271 273 275 277 278 277 278 279 280 280 279 279 278 277 278 280 283 287 289 288 287 286 287 288 288 288 289 290 291 293 293 293 293 294 295 297 298 300 301 301 301 300 300 299 298 298 298 299 300 303 304 306 308 309 310 310 309 308 304 300 297 292 286 280 274
253 254 254 255 255 255 256 257 257 257 258 257 256 255 255 256 257 259 261 265 268 270 271 273 275 275 274 274 275 276 278 278 279 277 274 274 278 284 288 288 288 288 288 289 290 291 291 292 294 295 295 296 297 297 299 300 301 303 304 305 306 305 304 303 301 300 299 299 299 300 302 303 305 306 307 308 308 308 306 305 302 299 294 288 283 279
255 255 255 255 255 256 257 257 257 257 256 257 258 261 265 268 269 270 270 271 272 273 273 274 274 274 273 269 270 273 275 276 276 274 272 272 277 283 288 288 287 288 289 291 292 294 295 297 298 300 301 300 300 301 302 303 304 306 307 307 308 307 305 303 301 299 298 298 298 298 299 300 301 303 303 303 303 303 301 301 299 296 291 287 283 279
254 254 255 256 256 257 258 258 257 258 258 261 265 269 272 274 275 275 274 273 272 272 271 271 270 270 270 266 268 272 274 275 274 272 271 272 277 284 288 289 289 290 290 292 295 298 300 303 305 306 306 304 304 303 304 305 305 306 306 306 305 304 302 301 299 297 297 295 295 295 295 295 296 297 297 297 297 296 295 294 292 290 287 283 279 277
253 254 255 256 257 259 259 259 260 263 267 272 274 274 276 275 273 271 270 268 267 266 266 266 266 264 262 261 265 270 274 276 275 273 271 272 278 285 289 291 291 290 290 293 298 301 305 308 312 313 311 308 305 305 305 305 305 305 304 303 301 300 299 298 297 295 294 293 292 291 290 290 289 290 290 290 290 289 288 287 285 283 282 279 276 274
252 253 254 256 257 260 263 263 265 269 270 272 272 272 272 271 269 266 265 263 263 262 262 263 263 262 260 259 260 266 275 277 276 273 271 273 278 284 288 288 286 285 286 294 299 303 307 312 316 316 314 310 308 307 306 305 303 302 300 298 297 296 295 294 293 292 291 290 289 288 287 286 285 284 284 284 284 283 283 282 280 279 277 275 272 270
251 252 253 255 256 258 262 265 264 261 261 263 266 267 267 266 265 264 263 263 263 264 265 265 264 262 261 259 261 266 273 274 272 268 266 263 272 281 286 283 279 279 283 291 298 303 308 313 316 316 314 312 310 309 308 305 302 299 296 294 293 292 291 291 290 290 289 288 287 287 286 285 284 283 282 281 281 281 280 279 277 275 273 271 269 267
247 248 249 250 252 253 255 255 254 252 252 256 258 259 257 257 259 261 262 262 263 264 264 262 261 261 261 261 263 266 269 269 268 265 261 237 252 272 279 276 272 275 282 289 296 303 307 313 316 317 315 313 312 311 308 304 301 298 295 292 291 290 289 289 288 288 287 287 287 286 285 284 283 282 281 280 279 279 278 277 275 274 272 270 268 267
241 241 242 244 245 246 247 247 247 247 247 249 250 251 252 253 255 257 258 258 259 261 261 261 262 262 262 261 261 262 264 266 267 265 255 234 237 256 266 261 259 273 284 290 295 301 306 311 315 316 314 312 311 309 306 304 300 298 296 293 291 290 289 287 287 286 286 286 285 285 284 283 282 281 280 279 278 277 276 275 274 273 272 270 269 268
238 238 238 239 241 243 243 244 245 245 246 247 248 251 252 254 255 256 257 258 259 260 260 261 261 259 258 258 258 259 262 266 267 263 252 229 223 237 256 252 248 261 282 290 295 300 306 311 313 314 313 312 309 307 305 302 300 299 297 295 293 292 290 288 287 285 285 284 283 283 282 282 281 280 279 278 277 276 274 273 272 272 271 270 269 268
241 240 240 241 242 244 245 246 247 247 247 248 250 251 252 254 255 257 258 259 259 259 259 258 254 252 253 255 254 254 259 262 262 257 248 226 214 225 253 255 253 256 270 288 294 299 307 312 314 314 315 312 309 306 304 302 301 300 298 297 295 293 291 289 288 286 285 283 282 281 280 279 279 278 277 277 276 275 274 273 271 270 269 268 268 267
243 244 245 246 247 249 249 250 250 251 251 251 252 252 252 253 255 257 258 257 257 256 255 251 246 243 245 248 251 253 256 257 255 251 243 230 225 237 260 264 261 258 265 284 294 301 308 313 315 316 318 314 309 305 303 302 301 300 298 297 295 293 291 289 287 285 284 283 281 280 279 278 277 276 275 275 274 274 273 272 271 270 269 268 268 268
244 246 247 249 251 253 254 254 254 254 254 254 253 252 252 253 256 257 257 256 256 256 254 249 243 240 239 242 248 254 256 256 254 248 241 244 252 265 274 272 268 267 272 287 297 302 307 312 316 319 319 313 307 304 302 301 301 300 298 296 293 292 289 288 286 284 283 282 281 280 279 278 276 275 274 273 273 272 272 271 270 270 269 269 269 269
244 245 247 249 251 253 254 255 255 255 254 254 254 254 253 255 256 256 255 256 257 256 255 252 248 243 240 241 245 250 255 259 256 249 246 257 269 276 280 281 280 279 281 289 298 303 305 307 313 316 315 309 305 303 302 302 302 300 299 296 294 292 290 288 286 284 282 281 280 279 278 277 276 275 274 273 272 272 271 270 270 269 269 269 269 269
245 245 246 247 249 250 251 251 252 252 253 254 255 256 255 255 255 255 254 256 256 255 254 253 251 248 246 243 241 244 253 258 256 252 254 265 274 279 282 288 290 290 291 295 303 307 307 303 305 310 312 309 307 306 306 306 306 305 302 300 298 296 294 291 289 287 285 283 281 280 278 277 276 276 275 274 273 272 272 271 270 269 269 269 269 269
252 252 251 250 249 249 249 249 250 252 254 256 257 258 257 255 253 253 254 255 254 253 253 252 251 250 249 245 244 246 248 254 256 257 259 267 274 280 286 291 293 294 294 299 307 312 314 308 308 313 317 315 313 311 311 312 311 309 306 304 302 299 297 295 293 291 288 286 284 282 280 278 277 276 275 275 274 273 272 272 271 271 270 270 269 269
251 253 253 252 251 251 250 250 251 252 253 255 256 256 255 254 252 252 253 253 253 252 251 250 250 250 250 248 248 249 249 254 258 261 263 269 275 281 285 287 290 293 294 295 300 306 312 311 312 318 323 321 316 313 314 314 314 312 309 307 303 299 297 295 294 292 290 289 287 285 283 282 280 279 277 276 275 274 274 273 273 272 272 271 270 269
246 246 246 245 245 244 244 243 243 244 245 248 249 251 251 251 251 251 252 252 252 251 250 250 250 250 250 251 251 251 254 258 261 264 266 270 275 279 280 281 285 288 290 291 292 295 300 306 310 315 324 324 318 314 314 315 315 314 312 309 304 300 297 296 295 293 292 291 289 288 287 286 284 283 282 280 278 277 276 275 274 273 273 272 272 270
255 253 250 247 245 243 241 240 239 240 242 245 248 249 251 251 252 252 252 253 253 253 253 252 252 252 253 253 255 257 260 264 267 267 266 268 271 273 274 277 281 284 287 290 291 293 295 300 306 312 320 328 325 318 317 318 318 316 314 312 308 304 301 300 298 296 294 293 292 291 290 290 289 288 286 285 283 281 279 277 276 274 274 274 274 273
272 272 270 266 263 261 258 256 253 252 252 253 254 256 257 257 257 257 256 256 256 256 256 256 256 257 257 257 257 259 262 266 268 267 264 265 267 268 270 274 278 282 286 290 293 296 298 302 307 312 317 327 330 325 321 321 321 320 317 316 314 312 309 308 305 303 300 298 296 294 293 293 292 291 289 288 286 284 282 280 278 277 276 276 276 276
276 277 278 278 277 276 276 276 274 271 267 264 263 263 264 264 265 264 263 262 261 260 259 259 259 258 258 258 257 257 258 262 265 265 263 264 265 268 272 275 279 283 287 291 295 298 301 305 309 312 315 322 328 330 326 324 324 323 321 320 319 317 314 313 311 309 307 304 300 298 296 294 293 292 291 289 288 287 285 284 282 281 280 280 279 279
274 275 277 279 279 280 281 283 283 280 276 271 269 267 267 267 267 266 266 264 263 261 260 259 258 257 256 255 254 252 253 257 261 263 264 264 267 270 274 277 280 284 288 292 297 300 302 305 307 310 314 318 323 328 331 328 326 325 322 320 319 317 315 314 314 313 311 307 303 300 297 295 293 292 290 289 289 288 288 287 287 286 285 283 282 282
274 275 277 278 280 281 281 282 281 278 275 272 269 267 265 263 263 263 263 262 261 260 259 257 256 255 253 252 251 250 252 255 259 263 266 268 270 272 276 279 282 285 288 292 296 299 302 305 308 310 312 314 318 322 325 326 324 321 319 318 316 315 314 314 314 313 312 308 305 301 298 295 293 291 290 290 289 290 290 291 290 289 289 287 286 284
277 277 278 279 279 279 279 278 275 272 269 267 265 262 260 258 257 256 256 257 257 257 256 256 256 255 254 253 252 252 253 256 259 264 267 270 272 274 277 280 283 285 287 290 294 297 300 303 306 308 310 311 313 317 319 320 318 316 315 315 315 314 313 315 316 314 311 308 305 302 299 296 295 293 291 290 291 291 292 292 292 291 290 289 288 286
278 278 277 277 277 276 276 273 270 266 263 261 260 258 257 254 253 251 251 252 253 253 254 255 256 256 257 256 256 256 256 258 260 263 267 269 272 274 277 279 282 285 287 289 292 295 297 300 301 303 304 305 308 311 315 316 315 314 314 314 317 318 317 317 316 314 310 307 304 301 299 297 295 294 292 292 291 291 291 291 291 291 290 290 289 288
279 277 276 274 274 274 272 269 266 263 261 260 259 258 256 254 251 250 250 250 250 251 252 254 255 257 258 259 259 259 259 260 261 263 266 268 270 273 275 277 280 283 286 288 291 293 295 296 297 298 299 300 302 305 309 312 314 314 314 314 316 318 319 318 315 313 310 307 304 301 299 297 295 294 292 292 291 290 290 290 290 291 291 292 292 292
282 279 276 273 273 273 271 269 267 265 263 262 260 259 257 255 253 251 250 249 250 251 252 252 252 252 252 254 257 259 260 261 262 263 265 266 268 271 273 276 278 281 284 287 290 292 293 293 294 294 295 296 297 300 303 307 310 312 312 312 313 314 315 315 314 312 311 308 304 301 299 296 294 293 292 291 290 289 289 289 290 290 291 292 292 292
288 283 279 277 276 275 273 271 270 268 267 265 263 262 261 259 258 256 254 252 252 253 254 254 253 252 251 250 252 255 258 259 261 262 263 264 266 268 271 274 276 279 282 285 288 289 290 290 290 290 291 292 293 295 298 301 305 309 309 309 310 311 311 311 312 311 309 305 302 299 298 296 294 293 291 290 288 287 287 287 287 287 287 288 288 289
291 288 285 282 281 279 277 275 273 272 270 268 266 266 265 264 262 260 258 256 255 256 256 257 256 256 255 252 251 252 255 257 259 259 260 262 263 266 269 272 275 278 281 283 286 287 288 288 288 287 287 289 290 292 295 297 300 303 305 305 306 307 309 309 309 308 305 303 301 299 298 297 296 295 294 292 290 287 285 284 283 282 283 283 283 283
294 291 289 287 284 282 280 278 276 274 273 271 269 268 268 267 264 262 260 258 257 257 258 258 259 258 257 253 250 250 252 255 256 257 257 258 260 263 266 270 274 277 279 281 283 285 286 286 286 286 287 287 288 289 292 294 296 298 300 300 301 303 305 307 307 305 302 301 300 300 300 300 300 299 297 293 290 288 286 284 282 280 280 280 280 280
297 295 293 290 288 286 284 282 279 277 276 273 271 270 268 267 266 264 261 259 258 258 259 260 260 260 258 255 250 248 248 251 253 254 254 255 256 259 263 266 270 274 277 279 281 282 283 284 285 286 286 286 286 287 289 291 294 295 296 296 297 298 300 302 302 301 300 299 299 300 301 302 301 300 297 295 292 289 288 287 285 284 282 280 279 279
302 301 299 297 295 292 289 286 283 281 278 275 272 269 268 267 266 264 263 261 260 259 260 261 261 261 259 256 252 248 246 246 249 252 253 253 254 255 258 261 266 270 273 276 278 280 281 282 282 283 284 284 284 285 287 290 293 295 295 295 294 295 296 297 298 298 298 298 299 300 302 303 302 302 302 300 298 296 296 296 295 294 293 290 287 284
306 305 303 301 299 297 294 290 287 283 280 276 272 269 267 267 266 265 264 262 261 260 261 262 262 261 260 258 255 251 249 247 248 250 252 253 253 254 255 257 261 265 269 272 275 277 279 280 280 281 282 284 286 287 289 291 293 294 293 293 294 295 295 296 297 298 298 299 301 304 306 308 310 311 311 309 308 308 309 310 311 311 311 308 304 298
305 304 302 301 299 296 293 290 287 284 281 277 273 270 267 266 266 265 264 263 263 262 262 262 262 261 260 258 256 254 253 252 252 252 253 254 255 256 257 259 261 264 267 271 274 276 278 278 279 280 282 284 287 289 291 292 293 292 291 292 293 295 296 296 297 298 299 301 304 307 311 313 315 317 317 316 316 315 316 317 318 319 320 319 315 310
301 300 299 298 296 294 291 289 286 284 281 278 274 270 268 267 266 265 264 264 263 263 263 263 262 261 260 259 257 256 255 255 255 255 256 256 258 259 261 263 265 267 270 273 275 277 279 279 279 280 282 284 287 290 291 292 292 291 290 291 293 294 295 295 296 297 300 303 307 311 314 317 318 320 320 318 317 316 316 316 317 319 320 320 317 312
296 296 295 295 294 293 291 289 287 285 282 279 276 273 270 268 267 266 266 265 264 264 264 264 263 262 262 261 259 258 257 257 257 258 259 259 260 261 263 266 269 271 274 277 279 281 283 284 285 285 285 287 288 288 288 290 292 292 292 292 293 293 292 293 294 296 300 305 310 313 317 319 320 320 319 316 314 314 313 314 315 317 318 318 315 310